| time (UTC) | temp F | wind direction | speed knots | gust knots | rain 1hr in | rain 24hr in | rain mn in | humidity % | barometer mb |
| 20260505190030 | 85 | 285 | 1.7 | 6.1 | 0.00 | 0.00 | 0.00 | 37 | 1012.9 |
| 20260505185515 | 84 | 121 | 2.6 | 7.0 | 0.00 | 0.00 | 0.00 | 37 | 1012.8 |
| 20260505185007 | 83 | 190 | 0.0 | 7.0 | 0.00 | 0.00 | 0.00 | 39 | 1013.0 |
| 20260505184525 | 84 | 11 | 0.9 | 6.1 | 0.00 | 0.00 | 0.00 | 33 | 1013.1 |
| 20260505184004 | 84 | 252 | 1.7 | 9.6 | 0.00 | 0.00 | 0.00 | 36 | 1013.2 |
| 20260505183507 | 83 | 204 | 2.6 | 9.6 | 0.00 | 0.00 | 0.00 | 31 | 1013.2 |
| 20260505183036 | 83 | 109 | 3.5 | 8.7 | 0.00 | 0.00 | 0.00 | 34 | 1013.2 |
| 20260505182503 | 83 | 173 | 2.6 | 8.7 | 0.00 | 0.00 | 0.00 | 33 | 1013.2 |
| 20260505182007 | 83 | 352 | 1.7 | 8.7 | 0.00 | 0.00 | 0.00 | 36 | 1013.4 |
| 20260505181524 | 82 | 174 | 2.6 | 7.8 | 0.00 | 0.00 | 0.00 | 35 | 1013.4 |
| 20260505181006 | 83 | 130 | 1.7 | 10.4 | 0.00 | 0.00 | 0.00 | 34 | 1013.5 |
| 20260505180510 | 83 | 180 | 1.7 | 10.4 | 0.00 | 0.00 | 0.00 | 32 | 1013.7 |
| 20260505180033 | 83 | 123 | 2.6 | 8.7 | 0.00 | 0.00 | 0.00 | 36 | 1013.5 |
| 20260505175506 | 83 | 163 | 0.0 | 6.1 | 0.00 | 0.00 | 0.00 | 35 | 1013.6 |
| 20260505175008 | 82 | 111 | 2.6 | 6.1 | 0.00 | 0.00 | 0.00 | 33 | 1013.6 |
| 20260505174531 | 83 | 208 | 1.7 | 7.0 | 0.00 | 0.00 | 0.00 | 36 | 1013.6 |
| 20260505174004 | 81 | 107 | 0.9 | 7.8 | 0.00 | 0.00 | 0.00 | 38 | 1013.7 |
| 20260505173507 | 82 | 93 | 2.6 | 8.7 | 0.00 | 0.00 | 0.00 | 34 | 1013.7 |
| 20260505173035 | 82 | 140 | 0.0 | 8.7 | 0.00 | 0.00 | 0.00 | 36 | 1013.7 |
| 20260505172503 | 81 | 244 | 2.6 | 9.6 | 0.00 | 0.00 | 0.00 | 42 | 1013.7 |
| 20260505172012 | 81 | 131 | 1.7 | 9.6 | 0.00 | 0.00 | 0.00 | 39 | 1013.9 |
| 20260505171529 | 81 | 168 | 2.6 | 8.7 | 0.00 | 0.00 | 0.00 | 39 | 1013.9 |
| 20260505171003 | 81 | 164 | 1.7 | 8.7 | 0.00 | 0.00 | 0.00 | 45 | 1013.9 |
| 20260505170510 | 81 | 61 | 1.7 | 8.7 | 0.00 | 0.00 | 0.00 | 47 | 1014.1 |
| 20260505170026 | 81 | 157 | 1.7 | 5.2 | 0.00 | 0.00 | 0.00 | 43 | 1014.1 |
| 20260505165504 | 80 | 42 | 0.9 | 7.0 | 0.00 | 0.00 | 0.00 | 46 | 1014.1 |
| 20260505165006 | 80 | 197 | 0.9 | 7.0 | 0.00 | 0.00 | 0.00 | 48 | 1014.3 |
| 20260505164533 | 80 | 132 | 2.6 | 7.0 | 0.00 | 0.00 | 0.00 | 43 | 1014.3 |
| 20260505164006 | 79 | 126 | 0.0 | 6.1 | 0.00 | 0.00 | 0.00 | 45 | 1014.4 |
| 20260505163508 | 79 | 157 | 1.7 | 6.1 | 0.00 | 0.00 | 0.00 | 46 | 1014.3 |
| 20260505163027 | 79 | 80 | 0.9 | 5.2 | 0.00 | 0.00 | 0.00 | 45 | 1014.5 |
| 20260505162507 | 78 | 125 | 1.7 | 7.0 | 0.00 | 0.00 | 0.00 | 47 | 1014.4 |
| 20260505162012 | 79 | 84 | 0.0 | 7.0 | 0.00 | 0.00 | 0.00 | 46 | 1014.5 |
| 20260505161527 | 79 | 134 | 0.9 | 7.0 | 0.00 | 0.00 | 0.00 | 49 | 1014.6 |
| 20260505161004 | 79 | 186 | 0.0 | 3.5 | 0.00 | 0.00 | 0.00 | 52 | 1014.6 |
| 20260505160508 | 78 | 157 | 0.9 | 3.5 | 0.00 | 0.00 | 0.00 | 49 | 1014.8 |
| 20260505153032 | 76 | 63 | 0.9 | 5.2 | 0.00 | 0.00 | 0.00 | 50 | 1015.1 |
| 20260505152506 | 77 | 126 | 0.0 | 6.1 | 0.00 | 0.00 | 0.00 | 50 | 1015.1 |
| 20260505152011 | 76 | 225 | 0.9 | 7.0 | 0.00 | 0.00 | 0.00 | 54 | 1015.2 |
| 20260505151528 | 75 | 159 | 2.6 | 7.0 | 0.00 | 0.00 | 0.00 | 50 | 1015.1 |
| 20260505151008 | 75 | 165 | 1.7 | 7.0 | 0.00 | 0.00 | 0.00 | 51 | 1015.0 |
| 20260505150513 | 75 | 190 | 0.9 | 5.2 | 0.00 | 0.00 | 0.00 | 54 | 1015.2 |
| 20260505140509 | 70 | 190 | 0.9 | 4.3 | 0.00 | 0.00 | 0.00 | 60 | 1015.3 |
| 20260505125005 | 63 | 146 | 0.0 | 2.6 | 0.00 | 0.00 | 0.00 | 69 | 1015.3 |
| 20260505124507 | 63 | 225 | 0.0 | 2.6 | 0.00 | 0.00 | 0.00 | 70 | 1015.2 |
| 20260505124004 | 63 | 78 | 0.0 | 4.3 | 0.00 | 0.00 | 0.00 | 71 | 1015.2 |
| 20260505123504 | 62 | 42 | 0.0 | 4.3 | 0.00 | 0.00 | 0.00 | 70 | 1015.2 |
| 20260505123008 | 62 | 192 | 0.0 | 3.5 | 0.00 | 0.00 | 0.00 | 72 | 1015.3 |
| 20260505122504 | 62 | 76 | 0.0 | 3.5 | 0.00 | 0.00 | 0.00 | 72 | 1015.3 |
| 20260505122006 | 61 | 342 | 0.0 | 3.5 | 0.00 | 0.00 | 0.00 | 74 | 1015.2 |
| 20260505121512 | 61 | 92 | 0.0 | 3.5 | 0.00 | 0.00 | 0.00 | 73 | 1015.1 |
| 20260505121001 | 61 | 360 | 0.0 | 5.2 | 0.00 | 0.00 | 0.00 | 74 | 1015.1 |
| 20260505120508 | 60 | 345 | 0.0 | 5.2 | 0.00 | 0.00 | 0.00 | 75 | 1015.0 |
| 20260505120010 | 60 | 62 | 0.0 | 2.6 | 0.00 | 0.00 | 0.00 | 74 | 1015.0 |
| 20260505115507 | 60 | 292 | 0.0 | 2.6 | 0.00 | 0.00 | 0.00 | 75 | 1015.0 |
| 20260505115005 | 60 | 200 | 0.0 | 3.5 | 0.00 | 0.00 | 0.00 | 75 | 1014.9 |
| 20260505114509 | 60 | 37 | 0.0 | 3.5 | 0.00 | 0.00 | 0.00 | 75 | 1014.8 |
| 20260505114006 | 60 | 184 | 0.0 | 4.3 | 0.00 | 0.00 | 0.00 | 76 | 1014.7 |
| 20260505113505 | 59 | 82 | 0.0 | 4.3 | 0.00 | 0.00 | 0.00 | 76 | 1014.7 |
| 20260505113010 | 59 | 132 | 0.0 | 3.5 | 0.00 | 0.00 | 0.00 | 76 | 1014.7 |
| 20260505112504 | 59 | 201 | 0.9 | 6.1 | 0.00 | 0.00 | 0.00 | 76 | 1014.5 |
| 20260505112004 | 59 | 220 | 0.9 | 7.8 | 0.00 | 0.00 | 0.00 | 75 | 1014.4 |
| 20260505111517 | 59 | 159 | 0.9 | 7.8 | 0.00 | 0.00 | 0.00 | 76 | 1014.3 |
| 20260505111005 | 59 | 179 | 1.7 | 6.1 | 0.00 | 0.00 | 0.00 | 76 | 1014.4 |
| 20260505110507 | 59 | 139 | 0.9 | 5.2 | 0.00 | 0.00 | 0.00 | 76 | 1014.3 |
| 20260505102008 | 59 | 192 | 0.0 | 4.3 | 0.00 | 0.00 | 0.00 | 76 | 1014.1 |
| 20260505101512 | 58 | 175 | 0.9 | 4.3 | 0.00 | 0.00 | 0.00 | 76 | 1014.1 |
| 20260505101005 | 58 | 147 | 0.0 | 2.6 | 0.00 | 0.00 | 0.00 | 76 | 1014.1 |
| 20260505100506 | 58 | 146 | 0.0 | 0.0 | 0.00 | 0.00 | 0.00 | 76 | 1014.1 |
| 20260505100015 | 58 | 146 | 0.0 | 0.0 | 0.00 | 0.00 | 0.00 | 75 | 1014.1 |
| 20260505095504 | 59 | 76 | 0.0 | 0.0 | 0.00 | 0.00 | 0.00 | 75 | 1014.1 |
| 20260505095004 | 59 | 78 | 0.0 | 1.7 | 0.00 | 0.00 | 0.00 | 75 | 1014.1 |
| 20260505094514 | 59 | 182 | 0.0 | 1.7 | 0.00 | 0.00 | 0.00 | 74 | 1014.2 |
| 20260505094009 | 59 | 123 | 0.0 | 1.7 | 0.00 | 0.00 | 0.00 | 74 | 1014.1 |
| 20260505093511 | 59 | 62 | 0.0 | 1.7 | 0.00 | 0.00 | 0.00 | 73 | 1014.1 |
| 20260505093015 | 59 | 116 | 0.0 | 1.7 | 0.00 | 0.00 | 0.00 | 73 | 1014.0 |
| 20260505092508 | 60 | 194 | 0.0 | 2.6 | 0.00 | 0.00 | 0.00 | 73 | 1014.0 |
| 20260505092009 | 60 | 86 | 0.0 | 5.2 | 0.00 | 0.00 | 0.00 | 73 | 1014.0 |
| 20260505091522 | 60 | 123 | 0.0 | 5.2 | 0.00 | 0.00 | 0.00 | 72 | 1014.0 |
| 20260505091007 | 60 | 188 | 0.9 | 5.2 | 0.00 | 0.00 | 0.00 | 72 | 1013.9 |
| 20260505090505 | 60 | 188 | 0.0 | 1.7 | 0.00 | 0.00 | 0.00 | 72 | 1013.9 |
| 20260505090026 | 60 | 192 | 0.0 | 2.6 | 0.00 | 0.00 | 0.00 | 71 | 1013.9 |
| 20260505085505 | 60 | 169 | 0.0 | 3.5 | 0.00 | 0.00 | 0.00 | 71 | 1013.9 |
| 20260505085005 | 60 | 195 | 0.0 | 4.3 | 0.00 | 0.00 | 0.00 | 71 | 1013.9 |
| 20260505084520 | 60 | 110 | 0.0 | 4.3 | 0.00 | 0.00 | 0.00 | 71 | 1013.9 |
| 20260505084012 | 60 | 164 | 0.0 | 1.7 | 0.00 | 0.00 | 0.00 | 71 | 1013.9 |
| 20260505083507 | 60 | 181 | 0.0 | 1.7 | 0.00 | 0.00 | 0.00 | 71 | 1013.9 |
| 20260505083016 | 60 | 196 | 0.0 | 1.7 | 0.00 | 0.00 | 0.00 | 71 | 1014.0 |
| 20260505082506 | 61 | 173 | 0.0 | 1.7 | 0.00 | 0.00 | 0.00 | 71 | 1013.9 |
| 20260505082010 | 61 | 161 | 0.0 | 1.7 | 0.00 | 0.00 | 0.00 | 70 | 1013.9 |
| 20260505081521 | 61 | 157 | 0.0 | 2.6 | 0.00 | 0.00 | 0.00 | 70 | 1013.9 |
| 20260505081008 | 61 | 134 | 0.0 | 2.6 | 0.00 | 0.00 | 0.00 | 69 | 1013.9 |
| 20260505080508 | 61 | 126 | 0.0 | 3.5 | 0.00 | 0.00 | 0.00 | 69 | 1013.8 |
| 20260505080041 | 61 | 157 | 0.0 | 6.1 | 0.00 | 0.00 | 0.00 | 69 | 1013.9 |
| 20260505075506 | 61 | 179 | 0.9 | 6.1 | 0.00 | 0.00 | 0.00 | 68 | 1013.8 |
| 20260505075006 | 61 | 126 | 0.0 | 9.6 | 0.00 | 0.00 | 0.00 | 68 | 1013.8 |
| 20260505074519 | 61 | 161 | 0.0 | 9.6 | 0.00 | 0.00 | 0.00 | 68 | 1013.8 |
| 20260505074006 | 61 | 167 | 0.9 | 4.3 | 0.00 | 0.00 | 0.00 | 68 | 1013.8 |
| 20260505073507 | 61 | 151 | 0.0 | 4.3 | 0.00 | 0.00 | 0.00 | 67 | 1013.7 |
| 20260505073015 | 62 | 238 | 0.9 | 4.3 | 0.00 | 0.00 | 0.00 | 67 | 1013.6 |
| 20260505072507 | 62 | 148 | 0.0 | 4.3 | 0.00 | 0.00 | 0.00 | 67 | 1013.5 |
| 20260505072012 | 62 | 167 | 0.0 | 7.8 | 0.00 | 0.00 | 0.00 | 66 | 1013.4 |
| 20260505071514 | 62 | 115 | 0.0 | 7.8 | 0.00 | 0.00 | 0.00 | 66 | 1013.4 |
| 20260505071008 | 62 | 155 | 0.0 | 6.1 | 0.00 | 0.00 | 0.00 | 65 | 1013.3 |
| 20260505070511 | 62 | 173 | 0.9 | 7.0 | 0.00 | 0.00 | 0.00 | 65 | 1013.3 |
| 20260505070021 | 62 | 126 | 0.9 | 7.0 | 0.00 | 0.00 | 0.00 | 65 | 1013.2 |
| 20260505065508 | 62 | 114 | 0.9 | 7.8 | 0.00 | 0.00 | 0.00 | 65 | 1013.2 |
| 20260505065007 | 62 | 196 | 0.0 | 7.8 | 0.00 | 0.00 | 0.00 | 64 | 1013.3 |
| 20260505064513 | 62 | 156 | 0.0 | 6.1 | 0.00 | 0.00 | 0.00 | 63 | 1013.3 |
| 20260505064013 | 62 | 146 | 0.9 | 6.1 | 0.00 | 0.00 | 0.00 | 63 | 1013.3 |
| 20260505063511 | 62 | 146 | 0.9 | 5.2 | 0.00 | 0.00 | 0.00 | 62 | 1013.3 |
| 20260505063015 | 62 | 170 | 0.9 | 7.8 | 0.00 | 0.00 | 0.00 | 62 | 1013.3 |
| 20260505062507 | 62 | 169 | 0.9 | 7.8 | 0.00 | 0.00 | 0.00 | 62 | 1013.2 |
| 20260505062009 | 62 | 120 | 2.6 | 7.8 | 0.00 | 0.00 | 0.00 | 62 | 1013.1 |
| 20260505061520 | 62 | 172 | 0.9 | 6.1 | 0.00 | 0.00 | 0.00 | 61 | 1013.2 |
| 20260505061012 | 63 | 150 | 0.9 | 3.5 | 0.00 | 0.00 | 0.00 | 61 | 1013.2 |
| 20260505060511 | 63 | 177 | 0.9 | 5.2 | 0.00 | 0.00 | 0.00 | 60 | 1013.2 |
| 20260505060024 | 63 | 132 | 1.7 | 5.2 | 0.00 | 0.00 | 0.00 | 60 | 1013.3 |
| 20260505055504 | 63 | 123 | 0.9 | 7.0 | 0.00 | 0.00 | 0.00 | 59 | 1013.2 |
| 20260505055006 | 63 | 89 | 0.9 | 7.0 | 0.00 | 0.00 | 0.00 | 59 | 1013.2 |
| 20260505054503 | 63 | 132 | 1.7 | 6.1 | 0.00 | 0.00 | 0.00 | 58 | 1013.3 |
| 20260505054003 | 64 | 204 | 1.7 | 6.1 | 0.00 | 0.00 | 0.00 | 58 | 1013.3 |
| 20260505053507 | 64 | 129 | 0.9 | 6.1 | 0.00 | 0.00 | 0.00 | 58 | 1013.2 |
| 20260505053004 | 64 | 199 | 0.9 | 6.1 | 0.00 | 0.00 | 0.00 | 57 | 1013.3 |
| 20260505052502 | 64 | 140 | 1.7 | 7.0 | 0.00 | 0.00 | 0.00 | 56 | 1013.2 |
| 20260505052006 | 64 | 88 | 2.6 | 8.7 | 0.00 | 0.00 | 0.00 | 56 | 1013.3 |
| 20260505051504 | 64 | 148 | 0.9 | 8.7 | 0.00 | 0.00 | 0.00 | 56 | 1013.3 |
| 20260505051002 | 65 | 174 | 1.7 | 7.0 | 0.00 | 0.00 | 0.00 | 55 | 1013.2 |
| 20260505050511 | 65 | 148 | 1.7 | 8.7 | 0.00 | 0.00 | 0.00 | 55 | 1013.1 |
| 20260505041504 | 65 | 146 | 1.7 | 6.1 | 0.00 | 0.00 | 0.00 | 53 | 1012.8 |
| 20260505041002 | 66 | 194 | 0.9 | 7.0 | 0.00 | 0.00 | 0.00 | 54 | 1012.8 |
| 20260505040512 | 66 | 198 | 1.7 | 7.0 | 0.00 | 0.00 | 0.00 | 53 | 1012.7 |
| 20260505040005 | 66 | 121 | 1.7 | 7.0 | 0.00 | 0.00 | 0.00 | 53 | 1012.7 |
| 20260505035507 | 66 | 174 | 1.7 | 6.1 | 0.00 | 0.00 | 0.00 | 52 | 1012.6 |
| 20260505035011 | 66 | 169 | 0.9 | 8.7 | 0.00 | 0.00 | 0.00 | 53 | 1012.6 |
| 20260505034508 | 66 | 194 | 2.6 | 8.7 | 0.00 | 0.00 | 0.00 | 53 | 1012.7 |
| 20260505034006 | 66 | 131 | 1.7 | 5.2 | 0.00 | 0.00 | 0.00 | 52 | 1012.7 |
| 20260505033507 | 66 | 188 | 1.7 | 7.8 | 0.00 | 0.00 | 0.00 | 53 | 1012.7 |
| 20260505033004 | 66 | 155 | 1.7 | 7.8 | 0.00 | 0.00 | 0.00 | 52 | 1012.7 |
| 20260505032507 | 67 | 103 | 0.9 | 7.0 | 0.00 | 0.00 | 0.00 | 52 | 1012.7 |
| 20260505032010 | 67 | 159 | 0.9 | 4.3 | 0.00 | 0.00 | 0.00 | 51 | 1012.7 |
| 20260505031505 | 66 | 124 | 1.7 | 4.3 | 0.00 | 0.00 | 0.00 | 52 | 1012.7 |
| 20260505031010 | 66 | 164 | 0.9 | 4.3 | 0.00 | 0.00 | 0.00 | 52 | 1012.7 |
| 20260505030507 | 67 | 155 | 0.0 | 4.3 | 0.00 | 0.00 | 0.00 | 52 | 1012.7 |
| 20260505030004 | 67 | 165 | 0.9 | 4.3 | 0.00 | 0.00 | 0.00 | 51 | 1012.7 |
| 20260505025507 | 67 | 132 | 0.9 | 4.3 | 0.00 | 0.00 | 0.00 | 52 | 1012.7 |
| 20260505025007 | 67 | 185 | 0.9 | 4.3 | 0.00 | 0.00 | 0.00 | 52 | 1012.7 |
| 20260505024506 | 67 | 154 | 0.9 | 5.2 | 0.00 | 0.00 | 0.00 | 51 | 1012.8 |
| 20260505024006 | 67 | 182 | 0.9 | 5.2 | 0.00 | 0.00 | 0.00 | 51 | 1012.8 |
| 20260505023503 | 67 | 184 | 0.9 | 6.1 | 0.00 | 0.00 | 0.00 | 52 | 1012.8 |
| 20260505023007 | 67 | 167 | 0.9 | 6.1 | 0.00 | 0.00 | 0.00 | 52 | 1012.8 |
| 20260505022504 | 67 | 150 | 1.7 | 4.3 | 0.00 | 0.00 | 0.00 | 52 | 1012.8 |
| 20260505022003 | 67 | 113 | 0.9 | 4.3 | 0.00 | 0.00 | 0.00 | 51 | 1012.7 |
| 20260505021509 | 67 | 180 | 0.9 | 3.5 | 0.00 | 0.00 | 0.00 | 52 | 1012.7 |
| 20260505021008 | 68 | 155 | 0.9 | 3.5 | 0.00 | 0.00 | 0.00 | 50 | 1012.7 |
| 20260505020503 | 68 | 171 | 0.0 | 3.5 | 0.00 | 0.00 | 0.00 | 50 | 1012.7 |
| 20260505020014 | 68 | 120 | 0.9 | 3.5 | 0.00 | 0.00 | 0.00 | 50 | 1012.7 |
| 20260505015512 | 68 | 101 | 0.9 | 3.5 | 0.00 | 0.00 | 0.00 | 50 | 1012.8 |
| 20260505015005 | 68 | 173 | 0.9 | 2.6 | 0.00 | 0.00 | 0.00 | 50 | 1012.7 |
| 20260505014508 | 68 | 150 | 0.9 | 3.5 | 0.00 | 0.00 | 0.00 | 50 | 1012.7 |
| 20260505014007 | 69 | 196 | 0.9 | 3.5 | 0.00 | 0.00 | 0.00 | 49 | 1012.7 |
| 20260505013502 | 69 | 115 | 0.9 | 3.5 | 0.00 | 0.00 | 0.00 | 49 | 1012.5 |
| 20260505013011 | 69 | 131 | 0.0 | 3.5 | 0.00 | 0.00 | 0.00 | 50 | 1012.4 |
| 20260505012512 | 69 | 129 | 0.0 | 3.5 | 0.00 | 0.00 | 0.00 | 49 | 1012.4 |
| 20260505012004 | 68 | 148 | 0.0 | 5.2 | 0.00 | 0.00 | 0.00 | 50 | 1012.4 |
| 20260505011517 | 68 | 166 | 0.9 | 5.2 | 0.00 | 0.00 | 0.00 | 50 | 1012.4 |
| 20260505011008 | 68 | 121 | 0.9 | 2.6 | 0.00 | 0.00 | 0.00 | 51 | 1012.3 |
| 20260505010503 | 68 | 137 | 0.0 | 2.6 | 0.00 | 0.00 | 0.00 | 51 | 1012.3 |
| 20260505010011 | 68 | 135 | 0.0 | 2.6 | 0.00 | 0.00 | 0.00 | 50 | 1012.4 |
| 20260505005509 | 68 | 110 | 0.0 | 0.9 | 0.00 | 0.00 | 0.00 | 50 | 1012.3 |
| 20260505005005 | 68 | 142 | 0.0 | 0.9 | 0.00 | 0.00 | 0.00 | 50 | 1012.2 |
| 20260505004513 | 68 | 163 | 0.0 | 1.7 | 0.00 | 0.00 | 0.00 | 49 | 1012.1 |
| 20260505004009 | 69 | 161 | 0.0 | 2.6 | 0.00 | 0.00 | 0.00 | 50 | 1012.2 |
| 20260505003502 | 69 | 159 | 0.0 | 2.6 | 0.00 | 0.00 | 0.00 | 49 | 1012.1 |
| 20260505003012 | 69 | 146 | 0.0 | 0.9 | 0.00 | 0.00 | 0.00 | 50 | 1012.2 |
| 20260505002507 | 69 | 150 | 0.0 | 0.0 | 0.00 | 0.00 | 0.00 | 48 | 1012.2 |
| 20260505002004 | 70 | 124 | 0.0 | 0.0 | 0.00 | 0.00 | 0.00 | 48 | 1012.2 |
| 20260505001514 | 70 | 122 | 0.0 | 0.9 | 0.00 | 0.00 | 0.00 | 49 | 1012.2 |
| 20260505001006 | 70 | 116 | 0.0 | 3.5 | 0.00 | 0.00 | 0.00 | 47 | 1012.2 |
| 20260505000503 | 70 | 146 | 0.0 | 3.5 | 0.00 | 0.00 | 0.00 | 48 | 1012.1 |
| 20260505000027 | 70 | 138 | 0.0 | 0.9 | 0.00 | 0.00 | 0.00 | 48 | 1012.4 |
| 20260504235509 | 70 | 138 | 0.0 | 0.9 | 0.00 | 0.00 | 0.00 | 47 | 1012.4 |
| 20260504235006 | 71 | 138 | 0.0 | 0.9 | 0.00 | 0.00 | 0.00 | 47 | 1012.4 |
| 20260504234516 | 71 | 173 | 0.0 | 0.9 | 0.00 | 0.00 | 0.00 | 46 | 1012.3 |
| 20260504234009 | 71 | 173 | 0.0 | 0.9 | 0.00 | 0.00 | 0.00 | 45 | 1012.3 |
| 20260504233508 | 72 | 173 | 0.0 | 0.9 | 0.00 | 0.00 | 0.00 | 44 | 1012.3 |
| 20260504233018 | 72 | 196 | 0.0 | 0.9 | 0.00 | 0.00 | 0.00 | 44 | 1012.2 |
| 20260504232511 | 72 | 196 | 0.0 | 1.7 | 0.00 | 0.00 | 0.00 | 42 | 1012.2 |
| 20260504232006 | 73 | 151 | 0.0 | 1.7 | 0.00 | 0.00 | 0.00 | 41 | 1012.2 |
| 20260504231516 | 73 | 172 | 0.0 | 1.7 | 0.00 | 0.00 | 0.00 | 41 | 1012.1 |
| 20260504231009 | 73 | 177 | 0.0 | 1.7 | 0.00 | 0.00 | 0.00 | 40 | 1012.0 |
| 20260504230504 | 74 | 127 | 0.0 | 2.6 | 0.00 | 0.00 | 0.00 | 39 | 1011.9 |
| 20260504230020 | 74 | 121 | 0.0 | 4.3 | 0.00 | 0.00 | 0.00 | 39 | 1011.9 |
| 20260504225513 | 74 | 227 | 0.0 | 4.3 | 0.00 | 0.00 | 0.00 | 39 | 1011.9 |
| 20260504225007 | 74 | 138 | 0.0 | 5.2 | 0.00 | 0.00 | 0.00 | 37 | 1012.0 |
| 20260504224521 | 75 | 180 | 0.9 | 5.2 | 0.00 | 0.00 | 0.00 | 37 | 1012.0 |
| 20260504224007 | 75 | 190 | 0.9 | 4.3 | 0.00 | 0.00 | 0.00 | 38 | 1012.1 |
| 20260504223508 | 75 | 211 | 0.9 | 4.3 | 0.00 | 0.00 | 0.00 | 36 | 1012.2 |
| 20260504223020 | 75 | 79 | 0.0 | 4.3 | 0.00 | 0.00 | 0.00 | 37 | 1012.1 |
| 20260504222511 | 75 | 119 | 0.9 | 4.3 | 0.00 | 0.00 | 0.00 | 37 | 1012.1 |
| 20260504222011 | 75 | 325 | 0.0 | 4.3 | 0.00 | 0.00 | 0.00 | 37 | 1012.1 |
| 20260504221522 | 75 | 209 | 0.0 | 3.5 | 0.00 | 0.00 | 0.00 | 36 | 1012.1 |
| 20260504221010 | 75 | 140 | 0.9 | 6.1 | 0.00 | 0.00 | 0.00 | 36 | 1012.0 |
| 20260504220508 | 75 | 179 | 0.0 | 6.1 | 0.00 | 0.00 | 0.00 | 37 | 1012.0 |
| 20260504220022 | 75 | 223 | 2.6 | 6.1 | 0.00 | 0.00 | 0.00 | 37 | 1012.1 |
| 20260504215507 | 75 | 156 | 0.9 | 5.2 | 0.00 | 0.00 | 0.00 | 37 | 1012.1 |
| 20260504215009 | 76 | 20 | 0.0 | 6.1 | 0.00 | 0.00 | 0.00 | 37 | 1012.1 |
| 20260504214523 | 76 | 147 | 0.9 | 6.1 | 0.00 | 0.00 | 0.00 | 37 | 1012.1 |
| 20260504214010 | 76 | 119 | 0.0 | 5.2 | 0.00 | 0.00 | 0.00 | 37 | 1012.0 |
| 20260504213507 | 76 | 185 | 0.0 | 6.1 | 0.00 | 0.00 | 0.00 | 37 | 1012.0 |
| 20260504213044 | 76 | 201 | 0.9 | 6.1 | 0.00 | 0.00 | 0.00 | 35 | 1011.9 |
| 20260504212511 | 76 | 140 | 0.9 | 5.2 | 0.00 | 0.00 | 0.00 | 35 | 1011.9 |
| 20260504212007 | 77 | 17 | 0.9 | 4.3 | 0.00 | 0.00 | 0.00 | 36 | 1011.9 |
| 20260504211525 | 77 | 130 | 0.0 | 3.5 | 0.00 | 0.00 | 0.00 | 36 | 1011.9 |
| 20260504211007 | 77 | 65 | 0.0 | 3.5 | 0.00 | 0.00 | 0.00 | 35 | 1011.9 |
| 20260504210508 | 77 | 26 | 0.9 | 2.6 | 0.00 | 0.00 | 0.00 | 36 | 1011.9 |
| 20260504210027 | 77 | 100 | 0.0 | 3.5 | 0.00 | 0.00 | 0.00 | 35 | 1012.0 |
| 20260504205504 | 77 | 184 | 0.0 | 6.1 | 0.00 | 0.00 | 0.00 | 37 | 1011.9 |
| 20260504205003 | 77 | 98 | 0.0 | 6.1 | 0.00 | 0.00 | 0.00 | 36 | 1011.9 |
| 20260504204504 | 77 | 204 | 2.6 | 6.1 | 0.00 | 0.00 | 0.00 | 34 | 1011.9 |
| 20260504204004 | 77 | 56 | 0.0 | 3.5 | 0.00 | 0.00 | 0.00 | 35 | 1011.9 |
| 20260504203506 | 78 | 207 | 0.9 | 4.3 | 0.00 | 0.00 | 0.00 | 34 | 1012.0 |
| 20260504203008 | 78 | 162 | 0.0 | 4.3 | 0.00 | 0.00 | 0.00 | 34 | 1012.1 |
| 20260504202504 | 78 | 171 | 0.0 | 6.1 | 0.00 | 0.00 | 0.00 | 35 | 1012.1 |
| 20260504202008 | 78 | 96 | 1.7 | 6.1 | 0.00 | 0.00 | 0.00 | 36 | 1012.0 |
| 20260504201505 | 78 | 324 | 0.9 | 6.1 | 0.00 | 0.00 | 0.00 | 35 | 1012.2 |
| 20260504201005 | 78 | 352 | 0.9 | 7.8 | 0.00 | 0.00 | 0.00 | 35 | 1012.3 |
| 20260504200502 | 77 | 145 | 2.6 | 8.7 | 0.00 | 0.00 | 0.00 | 35 | 1012.2 |
| 20260504200006 | 77 | 105 | 0.0 | 8.7 | 0.00 | 0.00 | 0.00 | 37 | 1012.3 |
| 20260504195508 | 77 | 215 | 1.7 | 7.8 | 0.00 | 0.00 | 0.00 | 36 | 1012.3 |
| 20260504195003 | 77 | 160 | 0.9 | 3.5 | 0.00 | 0.00 | 0.00 | 35 | 1012.3 |
| 20260504194507 | 77 | 129 | 0.9 | 4.3 | 0.00 | 0.00 | 0.00 | 34 | 1012.4 |
| 20260504194003 | 77 | 124 | 0.9 | 4.3 | 0.00 | 0.00 | 0.00 | 35 | 1012.4 |
| 20260504193503 | 76 | 28 | 0.9 | 5.2 | 0.00 | 0.00 | 0.00 | 37 | 1012.5 |
| 20260504193007 | 76 | 24 | 0.9 | 5.2 | 0.00 | 0.00 | 0.00 | 36 | 1012.5 |
| 20260504192506 | 76 | 11 | 0.0 | 2.6 | 0.00 | 0.00 | 0.00 | 39 | 1012.7 |
| 20260504192003 | 76 | 144 | 0.0 | 3.5 | 0.00 | 0.00 | 0.00 | 36 | 1012.8 |
| 20260504191508 | 76 | 339 | 0.0 | 3.5 | 0.00 | 0.00 | 0.00 | 39 | 1012.8 |
| 20260504191012 | 76 | 63 | 0.9 | 7.8 | 0.00 | 0.00 | 0.00 | 37 | 1013.0 |
| 20260504190504 | 76 | 265 | 0.9 | 7.8 | 0.00 | 0.00 | 0.00 | 37 | 1013.0 |